Location: Memphis International Airport Police
(35.0443°N, 89.9815°W)
Time: 18:02:19
(UTC+00:00)

Cosmos 1048 Rocket - Pass Details

Date: 26 September 2023
Orbit: 742 x 789 km, 74.0° (Epoch: 10 December)

Event Time Altitude Azimuth Distance (km) Brightness Sun altitude
Rises 10:36:56 0° 342° (NNW) 3,255 7.2 -15.9°
Reaches altitude 10° 10:39:20 10° 343° (NNW) 2,317 6.4 -15.4°
Maximum altitude 10:44:36 88° 71° (ENE) 767 4.0 -14.3°
Drops below altitude 10° 10:49:46 10° 164° (SSE) 2,272 6.6 -13.3°
Sets 10:52:06 0° 164° (SSE) 3,186 7.3 -12.8°
